Home > Weather > New City > Past weeks

Flag for U.S.A. Weather for the Past 2 Weeks in New City, New York, U.S.A.

Now
23 °F

Passing clouds.


Feels Like: 9 °F
Forecast: 18 / 29 °F
Wind: 17 mph from Northwest

Location: Westchester County Airport

Current Time: Feb 11, 2016 at 6:06:31 AM

Latest Report: Feb 11, 2016 at 4:56 AM


Visibility: 10 mi

Pressure: 29.77 "Hg

Humidity: 48%

Dew point: 6 °F

Location of New CityLocation

Historic Weather in New City — Graph

°F

New City Temperature Yesterday

Maximum temperature yesterday: 37 °F (at 11:56 AM)
Minimum temperature yesterday: 28 °F (at 12:56 AM)
Average temperature yesterday: 33 °F

High & Low Weather Summary for the Past Weeks

 TemperatureHumidityPressure
High57 °F (Feb 1, 11:56 AM)97% (Feb 3, 6:56 PM)30.42 "Hg (Feb 3, 6:56 PM)
Low21 °F (Jan 28, 5:56 AM)30% (Jan 31, 2:56 PM)29.43 "Hg (Jan 29, 12:58 PM)
Average36 °F65%29.94 "Hg
* Reported Jan 27 4:56 AM — Feb 11 4:56 AM, New City, Weather by CustomWeather, © 2016

Note: Actual official high and low records may vary slightly from our data, if they occured in-between our weather recording intervals... More about our weather records

Advertising

New City Weather History for the Previous 24 Hours

 ConditionsComfort  
Time TempWeatherWind HumidityBarometerVisibility
4:56 AM
Thu, Feb 11
23 °FPassing clouds.17 mph48%29.77 "Hg10 mi
3:56 AM24 °FPassing clouds.22 mph52%29.75 "Hg10 mi
2:56 AM25 °FIce fog.16 mph63%29.74 "Hg3 mi
1:56 AM27 °FLight snow. Ice fog.14 mph75%29.73 "Hg3 mi
12:56 AM30 °FMostly cloudy.10 mph61%29.72 "Hg10 mi
11:56 PM
Wed, Feb 10
30 °FPassing clouds.12 mph59%29.72 "Hg10 mi
10:56 PM31 °FPassing clouds.8 mph57%29.72 "Hg10 mi
9:56 PM31 °FPassing clouds.7 mph57%29.71 "Hg9 mi
8:56 PM33 °FLight snow. Overcast.6 mph52%29.70 "Hg9 mi
7:56 PM34 °FPassing clouds.6 mph52%29.69 "Hg10 mi
6:56 PM34 °FPassing clouds.6 mph52%29.70 "Hg10 mi
5:56 PM35 °FPassing clouds.8 mph48%29.67 "Hg10 mi
4:56 PM36 °FPartly sunny.8 mph48%29.65 "Hg10 mi
3:56 PM36 °FPartly sunny.12 mph48%29.62 "Hg10 mi
2:56 PM37 °FPartly sunny.15 mph46%29.60 "Hg10 mi
1:56 PM37 °FPartly sunny.13 mph50%29.59 "Hg10 mi
12:56 PM37 °FPartly sunny.8 mph54%29.58 "Hg10 mi
11:56 AM37 °FBroken clouds.13 mph54%29.59 "Hg10 mi
10:56 AM35 °FScattered clouds.10 mph67%29.60 "Hg7 mi
9:56 AM33 °FFog.9 mph85%29.61 "Hg5 mi
8:56 AM32 °FIce fog.3 mph88%29.61 "Hg1 mi
7:56 AM31 °FLight snow. Ice fog.No wind89%29.60 "Hg1 mi
6:56 AM30 °FIce fog.No wind96%29.59 "Hg1 mi
Weather by CustomWeather, © 2016

See weather overviewHow to use our weather pages